User: anonymous   Login
Location: Beaurecueil
(43.5122°N, 5.5450°E)
Time: 04:03:39
(UTC+00:00)
Language:

Cosmos 1939 Rocket - Orbit

View from above orbital plane
View from above orbital plane
View from above satellite
View from above satellite

Ground track
Ground track

The orbit data is extracted from the following two-line orbital elements,

1 19046U 88032B   20337.32583154  .00001248  00000-0  96289-4 0  9990
2 19046  97.3948 350.8778 0036921 355.7877   4.3032 15.02802435762178
Epoch (UTC): 02 December 2020 07:49:11
Eccentricity: 0.0036921
inclination: 97.3948°
perigee height: 532 km
apogee height: 584 km
right ascension of ascending node: 350.8778°
argument of perigee: 355.7877°
revolutions per day: 15.02802435
mean anomaly at epoch: 4.3032°
orbit number at epoch: 76217

The dashed part of the orbit path shows where the satellite is in the earth's shadow,  

DLR